Location: Bagnolo San Vito
(45.0833°N, 10.8833°E)
Time: 00:29:38
(UTC+00:00)

Cosmos 192 - Pass Details

Date: 03 March 2021
Orbit: 700 x 714 km, 74.0° (Epoch: 17 April)

Event Time Altitude Azimuth Distance (km) Brightness Sun altitude
Rises 19:14:22 0° 202° (SSW) 3,072 7.7 -23.2°
Reaches altitude 10° 19:16:40 10° 203° (SSW) 2,159 6.9 -23.6°
Maximum altitude 19:21:33 82° 291° (WNW) 715 4.3 -24.4°
Drops below altitude 10° 19:26:29 10° 20° (NNE) 2,181 6.8 -25.2°
Sets 19:28:49 0° 21° (NNE) 3,106 7.6 -25.6°
